Location: Brachbach
(49.1847°N, 9.7240°E)
Time: 07:44:46
(UTC+00:00)

FO-29 - Pass Details

Date: 23 March 2026
Orbit: 801 x 1320 km, 98.5° (Epoch: 17 April)

Event Time Altitude Azimuth Distance (km) Brightness Sun altitude
Rises 22:25:44 0° 8° (N) 4,191 13.6 -37.8°
Reaches altitude 10° 22:29:29 10° 349° (N) 3,283 13.0 -38.0°
Maximum altitude 22:33:51 17° 314° (NW) 2,851 12.4 -38.2°
Drops below altitude 10° 22:38:17 10° 279° (W) 3,351 12.5 -38.4°
Sets 22:42:12 0° 261° (W) 4,316 12.9 -38.6°
